This demonstration page uses our WeatherBlox Daily Observations layout. Learn more.

Left ArrowRight Arrow

Hourly Observations for April 7, 2015

Temp ( °F °C ) Dew Point ( °F °C ) Humidity (%) Winds ( mph kmh ) Pressure ( in mb ) Visibility ( mi km ) Precip ( " mm )
12:08 am 00:08 Cloudy with Mist and Fog 55 12.8 55 12.8 100 100 Calm 30.09 1019 2.5 4.02335 0 0
12:24 am 00:24 Cloudy with Mist and Fog 56 13.3 56 13.3 100 100 Calm 30.09 1019 5 8.0467 0 0
12:53 am 00:53 Cloudy 56 13.3 56 13.3 100 100 Calm 30.08 1019 8 12.87472 0 0
1:53 am 01:53 Cloudy 58 14.4 56 13.3 93 93 Calm 30.07 1018 10 16.0934 0 0
2:53 am 02:53 Cloudy 57 13.9 55 12.8 93 93 SSE 3 6 30.07 1018 10 16.0934 0 0
3:50 am 03:50 Cloudy 57 14 55 13 94 94 Calm 30.06 1018 10 16.0934 0 0
3:53 am 03:53 Cloudy 58 14.4 55 12.8 90 90 SSE 3 6 30.05 1018 10 16.0934 0 0
4:53 am 04:53 Cloudy 58 14.4 55 12.8 90 90 VRB 3 6 30.04 1017 10 16.0934 0 0
5:03 am 05:03 Cloudy 59 15 56 13.3 90 90 Calm 30.03 1017 10 16.0934 0 0
5:53 am 05:53 Cloudy 59 15 57 13.9 93 93 SSE 6 9 30.02 1017 10 16.0934 0 0.0254
6:11 am 06:11 Cloudy with Nearby Thunderstorms 59 15 57 13.9 93 93 SSW 5 7 30.03 1017 9 14.48406 0 0.0254
6:20 am 06:20 Cloudy with Light Rain 59 15 57 13.9 93 93 SSW 6 9 30.06 1018 7 11.26538 0.01 0.254
6:27 am 06:27 Cloudy with Nearby Thunderstorms 58 14.4 57 13.9 97 97 SSW 5 7 30.03 1017 4 6.43736 0.03 0.762
6:39 am 06:39 Cloudy with Light Rain 59 15 57 13.9 93 93 VRB 5 7 30.03 1017 5 8.0467 0.05 1.27
6:50 am 06:50 Cloudy with Rain 59 15 57 14 94 94 Calm 30.03 1017 4 6.43736 0.07 1.778
6:53 am 06:53 Cloudy with Light Rain 59 15 57 13.9 93 93 NNW 6 9 30.03 1017 5 8.0467 0.07 1.778
7:01 am 07:01 Cloudy with Light Rain 59 15 58 14.4 96 96 Calm 30.03 1017 9 14.48406 0 0.0254
7:53 am 07:53 Cloudy with Mist and Fog 59 15 58 14.4 96 96 Calm 30.05 1018 6 9.65604 0 0.0254
8:23 am 08:23 Cloudy with Nearby Thunderstorms 60 15.6 59 15 96 96 VRB 5 7 30.06 1018 6 9.65604 0 0.0254
8:38 am 08:38 Cloudy with Light Rain 60 15.6 59 15 96 96 S 6 9 30.06 1018 5 8.0467 0 0.0254
8:53 am 08:53 Cloudy with Light Rain 60 15.6 59 15 96 96 S 5 7 30.06 1018 5 8.0467 0.01 0.254
9:26 am 09:26 Cloudy with Light Rain 60 15.6 59 15 96 96 Calm 30.06 1018 2.5 4.02335 0.02 0.508
9:36 am 09:36 Cloudy with Light Rain 60 15.6 60 15.6 100 100 VRB 3 6 30.06 1018 3 4.82802 0.02 0.508
9:53 am 09:53 Cloudy with Mist and Fog 61 16.1 60 15.6 97 97 Calm 30.05 1018 6 9.65604 0.02 0.508
10:53 am 10:53 Cloudy with Mist and Fog 62 16.7 60 15.6 93 93 ESE 3 6 30.05 1018 6 9.65604 0 0
11:53 am 11:53 Cloudy 64 17.8 61 16.1 90 90 Calm 30.06 1018 7 11.26538 0 0
12:04 pm 12:04 Cloudy 65 18.3 61 16.1 87 87 SSW 5 7 30.06 1018 9 14.48406 0 0
12:53 pm 12:53 Cloudy 66 18.9 61 16.1 84 84 VRB 3 6 30.05 1018 10 16.0934 0 0
1:05 pm 13:05 Cloudy 66 18.9 61 16.1 84 84 Calm 30.06 1018 10 16.0934 0 0
1:53 pm 13:53 Cloudy with Light Rain 66 18.9 62 16.7 87 87 SW 5 7 30.05 1018 5 8.0467 0.01 0.254
2:16 pm 14:16 Cloudy with Light Rain 64 17.8 63 17.2 96 96 SW 6 9 30.06 1018 2.5 4.02335 0 0.0254
2:34 pm 14:34 Cloudy 65 18.3 63 17.2 93 93 Calm 30.06 1018 7 11.26538 0.01 0.254
2:53 pm 14:53 Cloudy 66 18.9 62 16.7 87 87 SSW 7 11 30.05 1018 10 16.0934 0.01 0.254
3:13 pm 15:13 Cloudy 66 18.9 62 16.7 87 87 SSW 3 6 30.06 1018 10 16.0934 0 0
3:53 pm 15:53 Cloudy 68 20 62 16.7 81 81 SW 6 9 30.02 1017 10 16.0934 0 0
4:05 pm 16:05 Cloudy 68 20 62 16.7 81 81 SSW 6 9 30.03 1017 10 16.0934 0 0
4:53 pm 16:53 Cloudy 69 20.6 61 16.1 76 76 VRB 5 7 30 1016 10 16.0934 0 0
5:53 pm 17:53 Cloudy with Light Rain 66 18.9 63 17.2 90 90 SSW 3 6 30.03 1017 3 4.82802 0.01 0.254
6:53 pm 18:53 Mostly Cloudy 65 18.3 62 16.7 90 90 ESE 5 7 29.98 1015 10 16.0934 0 0.0254
7:36 pm 19:36 Mostly Cloudy 65 18.3 62 16.7 90 90 SSE 5 7 30 1016 10 16.0934 0 0
7:53 pm 19:53 Mostly Sunny 65 18.3 62 16.7 90 90 SSE 7 11 29.97 1015 10 16.0934 0 0
8:53 pm 20:53 Clear 62 16.7 61 16.1 96 96 Calm 29.99 1016 10 16.0934 0 0
9:53 pm 21:53 Mostly Cloudy 61 16.1 60 15.6 97 97 Calm 30.03 1017 9 14.48406 0 0
10:32 pm 22:32 Cloudy 61 16.1 60 15.6 97 97 Calm 30.03 1017 9 14.48406 0 0
10:53 pm 22:53 Mostly Cloudy with Mist and Fog 60 15.6 59 15 96 96 Calm 30.04 1017 5 8.0467 0 0
11:00 pm 23:00 Partly Cloudy with Mist and Fog 59 15 59 15 100 100 Calm 30.06 1018 2.5 4.02335 0 0
11:03 pm 23:03 Partly Cloudy with Mist and Fog 59 15 59 15 100 100 Calm 30.06 1018 1.25 2.011675 0 0
11:05 pm 23:05 Mostly Cloudy with Mist and Fog 59 15 58 14.4 96 96 Calm 30.06 1018 0.75 1.207005 0 0
11:14 pm 23:14 Mostly Clear with Mist and Fog 58 14.4 58 14.4 100 100 Calm 30.06 1018 1 1.60934 0 0
11:19 pm 23:19 Partly Cloudy with Mist and Fog 58 14.4 58 14.4 100 100 Calm 30.06 1018 0.75 1.207005 0 0
11:49 pm 23:49 Mostly Cloudy with Fog 57 14 57 14 100 100 Calm 30.03 1017 0.5 0.80467 0 0
11:53 pm 23:53 Mostly Cloudy with Mist and Fog 57 13.9 57 13.9 100 100 Calm 30.04 1017 1 1.60934 0 0

Powered by AerisWeather